Regional Weather Roundup
Issued by NWS Kansas City/Pleasant Hill, MO

Home | Current Version | Previous Version | Graphics & Text | Print | Product List | Glossary Off
Versions: 1 2 3 4 5 6 7 8 9 10 11 12 13 14 15 16 17 18 19 20 21 22 23 24 25 26 27 28 29 30 31 32 33 34 35 36 37 38 39 40 41 42 43 44 45 46 47 48 49 50

000
ASUS43 KEAX 200310
RWREAX

WEATHER ROUNDUP FOR EASTERN KANSAS AND NORTHWEST MISSOURI
NATIONAL WEATHER SERVICE KANSAS CITY/PLEASANT HILL MO
1000 PM CDT TUE AUG 19 2014

KSZ040-057-103>105-MOZ028-029-037-043-200400-
...KANSAS CITY METROPOLITAN AREA...

CITY           SKY/WX    TMP DP  RH WIND       PRES   REMARKS
K.C. INTL      CLEAR     83  71  67 SE9       29.81R
K.C. DOWNTOWN  CLEAR     84  75  74 E5        29.79R HX  92
LEES SUMMIT    CLEAR     82  73  74 SE5       29.82R
OLATHE - IXD   CLEAR     75  69  81 S7        29.83R
OLATHE - OJC   CLEAR     79  71  76 S5        29.82R
LAWRENCE       CLEAR     79  72  79 E7        29.80R

$$

MOZ001>008-011>017-020>025-030>033-038>040-044>046-053-054-200400-
...NORTHERN AND CENTRAL MISSOURI...

CITY           SKY/WX    TMP DP  RH WIND       PRES   REMARKS
ST. JOSEPH     CLEAR     75  73  93 CALM      29.80R
MOSBY          CLEAR     77  73  88 CALM      29.80S
WHITEMAN AFB   PTCLDY    77  67  72 SE5       29.82R
CLINTON        CLEAR     75  73  94 CALM      29.84R
SEDALIA        CLEAR     78  72  81 S5        29.84R
WARSAW         NOT AVBL
MARSHALL       CLEAR     79  77  94 E3        29.83R
CHILLICOTHE      N/A     78  74  87 CALM      29.82R
MOBERLY        CLEAR     77  70  78 CALM      29.84R
KIRKSVILLE     MOCLDY    72  70  93 CALM      29.85R

$$

MOZ041-047>049-056>058-063>065-088>090-097-200400-
...EASTERN AND SOUTHERN MISSOURI...

CITY           SKY/WX    TMP DP  RH WIND       PRES   REMARKS
ST. LOUIS INTL PTCLDY    80  71  74 CALM      29.83R
SPIRIT OF STL  CLEAR     74  73  97 CALM      29.82R
COLUMBIA       CLEAR     78  72  81 E3        29.84R
JEFFERSON CITY CLEAR     76  72  87 CALM      29.83R
MEXICO         CLEAR    N/A N/A N/A CALM      29.85R
HANNIBAL       PTCLDY    75  72  88 S5        29.84R
ROLLA          CLEAR     73  68  84 SE5       29.85R
LEBANON        CLEAR     81  66  61 CALM      29.90R
OSAGE BEACH    CLEAR     75  72  88 CALM      29.85R
SPRINGFIELD    CLEAR     79  66  64 SW8       29.89R
BRANSON        CLEAR     81  68  65 S5        29.91S
JOPLIN         CLEAR     81  70  69 S8        29.87R
WEST PLAINS    PTCLDY    81  69  67 SW7       29.91R

$$

IAZ060-094-KSZ022-034>040-054-083-096-NEZ052-066-093-200400-
...KANSAS...SOUTHEAST NEBRASKA AND IOWA...

CITY           SKY/WX    TMP DP  RH WIND       PRES   REMARKS
TOPEKA         CLEAR     82  72  71 E3        29.79R
MANHATTAN      CLEAR     82  69  64 CALM      29.78R
EMPORIA        CLEAR     77  67  71 S9        29.82R
CHANUTE        CLEAR     80  69  69 S8        29.84R HAZE
WICHITA        PTCLDY    82  67  60 S12       29.82R
OMAHA          MOCLDY    79  64  60 S5        29.80R
LINCOLN        PTCLDY    82  69  64 SE8       29.80R
FALLS CITY     CLEAR     76  73  91 E5        29.78S
LAMONI         CLEAR     75  69  81 E5        29.83R
DES MOINES     CLEAR     78  65  63 CALM      29.81R

$$



USA.gov is the U.S. government's official web portal to all federal, state and local government web resources and services.